Weather History for Darlington, SC

Change the Weather History Date:

Monday, January 2, 2012

  Actual Average (KFLO) Record (KFLO)
Temperature  
Mean Temperature 46 °F 45 °F  
Max Temperature 57 °F 55 °F 81 °F (1952)
Min Temperature 35 °F 34 °F 20 °F (1977)
Degree Days  
Heating Degree Days 19 20  
Month to date heating degree days 40  
Since 1 July heating degree days 1019  
Cooling Degree Days 0 0  
Month to date cooling degree days 0  
Year to date cooling degree days 0  
Moisture  
Dew Point 21 °F    
Average Humidity 40    
Maximum Humidity 65    
Minimum Humidity 22    
Precipitation  
Precipitation 0.00 in 0.10 in 1.72 in (1979)
Month to date precipitation 0.21  
Year to date precipitation 0.21  
Sea Level Pressure  
Sea Level Pressure 30.04 in    
Wind  
Wind Speed 10 mph (WNW)    
Max Wind Speed 16 mph    
Max Gust Speed 28 mph    
Visibility 10 miles    
Events      
T = Trace of Precipitation, MM = Missing Value Source: NWS Daily Summary

Daily Weather History Graph

Daily Weather History Graph

Search for Another Location

Airport:

Trip Planner

Search our weather history database for the weather conditions in past years. The results will help you decide how hot, cold, wet, or windy it might be!

Date:

Astronomy

Jan. 02, 2012 Rise Set
Actual Time 7:26 AM EST 5:20 PM EST
Civil Twilight 6:58 AM EST 5:48 PM EST
Nautical Twilight 6:27 AM EST 6:19 PM EST
Astronomical Twilight 5:56 AM EST 6:50 PM EST
Moon 12:30 PM EST (1/2) 1:24 AM EST (1/2)
Length of Visible Light 10h 50m
Length of Day
9h 54m
Waxing Gibbous, 63% of the Moon is Illuminated
Jan 2
Waxing Gibbous
Jan 9
Full
Jan 16
Last Quarter
Jan 23
New
Jan 30
First Quarter

Hourly Weather History & Observations

Time (EST) Temp. Windchill Dew Point Humidity Pressure Visibility Wind Dir Wind Speed Gust Speed Precip Events Conditions
12:15 AM 57.2 °F - 37.4 °F 48% 30.01 in 10.0 mi NNW 12.7 mph - N/A   Clear
12:35 AM 55.4 °F - 35.6 °F 47% 30.01 in 10.0 mi NNW 12.7 mph 18.4 mph N/A   Clear
12:55 AM 55.4 °F - 33.8 °F 44% 30.01 in 10.0 mi NNW 12.7 mph - N/A   Clear
1:15 AM 53.6 °F - 30.2 °F 41% 30.01 in 10.0 mi NW 9.2 mph - N/A   Clear
1:55 AM 51.8 °F - 24.8 °F 35% 30.03 in 10.0 mi NW 11.5 mph 19.6 mph N/A   Clear
2:15 AM 51.8 °F - 24.8 °F 35% 30.03 in 10.0 mi NW 10.4 mph 16.1 mph N/A   Clear
2:55 AM 48.2 °F - 24.8 °F 40% 30.05 in 10.0 mi NNW 6.9 mph - N/A   Clear
3:15 AM 48.2 °F - 26.6 °F 43% 30.05 in 10.0 mi NNW 11.5 mph - N/A   Clear
4:15 AM 44.6 °F 40.2 °F 26.6 °F 49% 30.05 in 10.0 mi NW 8.1 mph - N/A   Clear
4:35 AM 42.8 °F 39.3 °F 26.6 °F 53% 30.05 in 10.0 mi NW 5.8 mph - N/A   Clear
5:35 AM 39.2 °F 35.9 °F 26.6 °F 61% 30.06 in 10.0 mi West 4.6 mph - N/A   Clear
5:55 AM 37.4 °F 32.8 °F 26.6 °F 65% 30.06 in 10.0 mi West 5.8 mph - N/A   Clear
6:15 AM 39.2 °F 34.2 °F 26.6 °F 61% 30.06 in 10.0 mi WNW 6.9 mph - N/A   Clear
6:55 AM 39.2 °F 35.9 °F 24.8 °F 56% 30.07 in 10.0 mi WNW 4.6 mph - N/A   Clear
7:15 AM 37.4 °F 34.9 °F 24.8 °F 60% 30.08 in 10.0 mi NW 3.5 mph - N/A   Clear
7:35 AM 37.4 °F 33.8 °F 26.6 °F 65% 30.09 in 10.0 mi NW 4.6 mph - N/A   Clear
7:55 AM 37.4 °F 33.8 °F 24.8 °F 60% 30.10 in 10.0 mi WNW 4.6 mph - N/A   Clear
8:15 AM 39.2 °F 35.0 °F 26.6 °F 61% 30.11 in 10.0 mi WNW 5.8 mph - N/A   Clear
8:35 AM 42.8 °F 40.1 °F 24.8 °F 49% 30.11 in 10.0 mi WNW 4.6 mph - N/A   Clear
8:55 AM 42.8 °F 38.6 °F 24.8 °F 49% 30.12 in 10.0 mi NW 6.9 mph - N/A   Clear
9:15 AM 44.6 °F 39.7 °F 24.8 °F 46% 30.12 in 10.0 mi NW 9.2 mph - N/A   Clear
9:35 AM 44.6 °F 39.7 °F 24.8 °F 46% 30.11 in 10.0 mi NW 9.2 mph - N/A   Clear
9:55 AM 46.4 °F 40.4 °F 21.2 °F 37% 30.11 in 10.0 mi NW 13.8 mph 17.3 mph N/A   Clear
10:15 AM 46.4 °F 41.5 °F 21.2 °F 37% 30.10 in 10.0 mi NW 10.4 mph - N/A   Clear
10:35 AM 46.4 °F 41.1 °F 21.2 °F 37% 30.10 in 10.0 mi NW 11.5 mph - N/A   Clear
11:15 AM 48.2 °F - 21.2 °F 34% 30.08 in 10.0 mi NNW 9.2 mph - N/A   Clear
11:35 AM 48.2 °F - 21.2 °F 34% 30.06 in 10.0 mi WNW 10.4 mph - N/A   Clear
11:55 AM 48.2 °F - 21.2 °F 34% 30.05 in 10.0 mi WSW 11.5 mph - N/A   Clear
12:15 PM 50.0 °F - 19.4 °F 30% 30.04 in 10.0 mi West 15.0 mph - N/A   Clear
12:35 PM 51.8 °F - 19.4 °F 28% 30.03 in 10.0 mi West 10.4 mph 16.1 mph N/A   Clear
12:55 PM 50.0 °F - 17.6 °F 28% 30.01 in 10.0 mi West 13.8 mph - N/A   Clear
1:15 PM 51.8 °F - 17.6 °F 26% 30.00 in 10.0 mi West 12.7 mph 19.6 mph N/A   Clear
1:35 PM 50.0 °F - 17.6 °F 28% 29.99 in 10.0 mi West 12.7 mph 21.9 mph N/A   Clear
1:55 PM 50.0 °F - 15.8 °F 26% 29.98 in 10.0 mi West 16.1 mph 19.6 mph N/A   Clear
2:15 PM 51.8 °F - 15.8 °F 24% 29.98 in 10.0 mi West 15.0 mph 20.7 mph N/A   Clear
2:35 PM 51.8 °F - 14.0 °F 22% 29.97 in 10.0 mi West 11.5 mph - N/A   Clear
3:15 PM 51.8 °F - 14.0 °F 22% 29.96 in 10.0 mi WSW 8.1 mph - N/A   Clear
3:35 PM 51.8 °F - 15.8 °F 24% 29.96 in 10.0 mi WSW 13.8 mph 17.3 mph N/A   Clear
3:55 PM 51.8 °F - 17.6 °F 26% 29.96 in 10.0 mi WSW 10.4 mph 18.4 mph N/A   Clear
4:15 PM 50.0 °F - 19.4 °F 30% 29.97 in 10.0 mi WSW 10.4 mph - N/A   Clear
4:35 PM 48.2 °F - 19.4 °F 32% 29.97 in 10.0 mi WSW 12.7 mph - N/A   Clear
4:55 PM 48.2 °F - 19.4 °F 32% 29.97 in 10.0 mi West 6.9 mph - N/A   Clear
5:15 PM 46.4 °F 42.9 °F 19.4 °F 34% 29.98 in 10.0 mi West 6.9 mph - N/A   Clear
5:35 PM 46.4 °F 42.4 °F 17.6 °F 32% 29.98 in 10.0 mi West 8.1 mph - N/A   Clear
6:15 PM 44.6 °F 40.7 °F 17.6 °F 34% 29.98 in 10.0 mi West 6.9 mph - N/A   Clear
6:35 PM 42.8 °F 38.6 °F 17.6 °F 36% 29.99 in 10.0 mi WSW 6.9 mph - N/A   Clear
6:55 PM 42.8 °F 38.6 °F 19.4 °F 39% 29.98 in 10.0 mi West 6.9 mph - N/A   Clear
7:55 PM 41.0 °F 33.5 °F 17.6 °F 39% 30.01 in 10.0 mi NNW 13.8 mph - N/A   Scattered Clouds
8:15 PM 39.2 °F 32.5 °F 15.8 °F 39% 30.02 in 10.0 mi NNW 10.4 mph 18.4 mph N/A   Partly Cloudy
8:55 PM 39.2 °F 32.5 °F 15.8 °F 39% 30.03 in 10.0 mi NNW 10.4 mph - N/A   Scattered Clouds
9:15 PM 39.2 °F 33.0 °F 15.8 °F 39% 30.04 in 10.0 mi NNW 9.2 mph - N/A   Overcast
9:55 PM 39.2 °F 31.2 °F 12.2 °F 33% 30.06 in 10.0 mi NNW 13.8 mph 20.7 mph N/A   Overcast
10:15 PM 37.4 °F 28.2 °F 15.8 °F 41% 30.08 in 10.0 mi NW 16.1 mph 27.6 mph N/A   Overcast
10:35 PM 37.4 °F 28.9 °F 14.0 °F 38% 30.08 in 10.0 mi NNW 13.8 mph 20.7 mph N/A   Overcast
11:15 PM 35.6 °F 26.2 °F 12.2 °F 38% 30.08 in 10.0 mi NNW 15.0 mph 18.4 mph N/A   Overcast
11:35 PM 35.6 °F 27.5 °F 8.6 °F 33% 30.08 in 10.0 mi NNW 11.5 mph 20.7 mph N/A   Overcast
11:55 PM 35.6 °F 26.6 °F 10.4 °F 35% 30.08 in 10.0 mi NW 13.8 mph 24.2 mph N/A   Overcast